地平线卫星 18星 (GORIZONT 18)

导读

GORIZONT 18(地平线18号)是独联体(CIS,继承自苏联)发射的通信卫星,属于GORIZONT(地平线)系列,1989年7月5日发射入轨,国际标识为1989-052A,运行于地球静止轨道。该卫星主要承担战略战术通信任务,提供加密传输服务,支持军事指挥控制覆盖,截至2026年已在轨飞行超过36年,目前仍保持在轨状态。

Basic Information
目录编号:
20107
目录名称:
GORIZONT 18
国际标识:
1989-052A
轨道中心:
EARTH
卫星名称:
地平线卫星 18星
卫星全名:
地平线卫星 18星 (GORIZONT 18)
卫星状态:
在轨 (已飞行13496 天)
发射日期:
1989-07-05 UTC
国别 :
俄罗斯(独联体) (CIS)
星等 :
--
Orbit Information
数据来源 国际轨道数据 AOE轨道数据
星历时间 2026-06-17T04:30:15+0800
21小时前
查看轨道信息
2026-06-17T04:00:00+0800
22小时前
查看轨道信息
半长轴 42409.687km 42409.943km
偏心率 0.003643 0.0036496
轨道倾角 12.389° 12.389°
近地点辐角 348.035° 348.077°
升交点赤经 334.477° 334.478°
平近点角 25.983° 18.423°
近地点 35877.051km 35877.026km
远地点 36186.049km 36186.586km
周期 1448.629分钟 1448.643分钟
每日圈数 0.994043 0.994034
Detailed Information
平衡模式:
三轴稳定
覆盖范围:
全球
运营商:
俄罗斯国家航天集团
运营商所在国:
俄罗斯
制造商(研发单位):
普里克拉德诺伊·梅哈尼基设计局
制造商所在国:
俄罗斯联邦
使用方式:
暂无
Satellite Introduction
地平线卫星(Gorizont)(俄语:Горизонт,Horizon),是1978年至2000年间发射的一系列(共35颗)俄罗斯(前苏联)地球同步通信卫星。该计划的启动是为了开发一个卫星系统来中继信号使全球覆盖1980年的莫斯科奥运会。 最初的四颗卫星是为了这个唯一目的而发射的。 此后,Gorizont系统被集成到YesSSS统一卫星通信系统中,用于中继民用和军用通信。 从1988年起,这些卫星还被用于支持Okean计划。该卫星已退役。
2D Orbit Map
3D Orbit Map
Orbit Altitude Analysis Chart
Orbit Inclination Analysis Chart
Orbit Comprehensive Analysis Chart
View Comprehensive Chart